Miscellaneous Local Product
Issued by NWS Hastings, NE

Home | Current Version | Previous Version | Text Only | Print | Product List | Glossary On
Versions: 1 2 3 4 5 6 7 8 9 10 11 12 13 14 15 16 17 18 19 20 21 22 23 24 25 26 27 28 29 30 31 32 33 34 35 36 37 38 39 40 41 42 43 44 45 46 47 48 49 50
000
AXUS43 KGID 311502
MISGRI

GID CWA HOURLY WEATHER ROUNDUP
NATIONAL WEATHER SERVICE HASTINGS NE
1000 AM CDT FRI JUL 31 2015

NOTE: "FAIR" INDICATES FEW OR NO CLOUDS BELOW 12,000 FEET WITH NO
SIGNIFICANT WEATHER AND/OR OBSTRUCTIONS TO VISIBILITY.

...SOUTH CENTRAL NEBRASKA...

CITY           SKY/WX    TMP DP  RH WIND       PRES   REMARKS
GRAND ISLAND   SUNNY     81  69  67 W8        30.19F
HASTINGS       MOSUNNY   78  72  81 W8        30.20S
KEARNEY        SUNNY     81  68  65 W7        30.20S
ORD            SUNNY     80  67  64 SW6       30.17F
YORK           SUNNY     77  72  83 W6        30.19S
AURORA         SUNNY     80  74  84 W8        30.19S
LEXINGTON      MOSUNNY   77  70  77 W3        30.22R
HOLDREGE       SUNNY     80  69  69 SW5       30.21S
HEBRON         SUNNY     80  69  69 W6        30.19F

...NEBRASKA PANHANDLE...

CITY           SKY/WX    TMP DP  RH WIND       PRES   REMARKS
CHADRON        SUNNY     70  55  59 SW5       30.24S
ALLIANCE       SUNNY     74  61  63 SE5       30.27S
SCOTTSBLUFF    SUNNY     71  59  65 SE5       30.28S
SIDNEY         SUNNY     74  59  59 S6        30.31F

...WESTERN AND NORTH CENTRAL NEBRASKA...

CITY           SKY/WX    TMP DP  RH WIND       PRES   REMARKS
VALENTINE      SUNNY     81  59  47 W6        30.19F
AINSWORTH      SUNNY     80  65  59 NE5       30.20S
ONEILL         SUNNY     79  66  65 E5        30.18F
BROKEN BOW     SUNNY     81  68  64 W6        30.20F
IMPERIAL       SUNNY     78  61  55 W5        30.25F
NORTH PLATTE   SUNNY     77  64  64 W5        30.22F
MCCOOK         SUNNY     77  67  71 SW6       30.22F

...EASTERN NEBRASKA...

CITY           SKY/WX    TMP DP  RH WIND       PRES   REMARKS
NORFOLK        SUNNY     79  69  71 CALM      30.15F
SO SIOUX CITY  SUNNY     77  66  68 E3        30.14F
TEKAMAH        SUNNY     79  69  71 VRB3      30.14S
COLUMBUS       SUNNY     81  68  65 SW7       30.15F
ALBION         SUNNY     78  69  73 CALM      30.16F
OMAHA EPPLEY   MOSUNNY   83  69  62 SW8       30.13F
OFFUTT AFB     SUNNY     82  71  69 W8        30.13F
MILLARD        SUNNY     81  71  70 SW5       30.15S
LINCOLN        SUNNY     81  69  67 W8        30.17F
NEBRASKA CITY  SUNNY     79  67  65 W12       30.15F
BEATRICE       SUNNY     77  68  72 CALM      30.18F
FALLS CITY     SUNNY     79  69  71 CALM      30.15F

...NORTHERN KANSAS...

CITY           SKY/WX    TMP DP  RH WIND       PRES   REMARKS
GOODLAND       SUNNY     75  67  76 S10       30.29S
HILL CITY      SUNNY     81  71  71 W9        30.22F
NORTON         SUNNY     79  66  65 SW8       30.21F
PHILLIPSBURG   SUNNY     82  72  69 SW8       30.20S
SMITH CENTER   SUNNY     79  70  73 SW5       30.20F
HAYS           SUNNY     79  64  61 W6        30.22F
RUSSELL        SUNNY     79  70  74 SW5       30.20F
CONCORDIA      SUNNY     80  70  71 CALM      30.19S
SALINA         SUNNY     81  71  71 SW6       30.19S
TOPEKA         SUNNY     77  68  73 S3        30.17F



USA.gov is the U.S. government's official web portal to all federal, state and local government web resources and services.